Location: Morlupo
(42.1333°N, 12.5000°E)
Time: 15:21:52
(UTC+00:00)

Cosmos 158 Rocket - Pass Details

Date: 18 September 2020
Orbit: 699 x 793 km, 74.0° (Epoch: 25 October)

Event Time Altitude Azimuth Distance (km) Brightness Sun altitude
Rises 17:33:28 0° 340° (NNW) 3,269 7.6 -4.5°
Reaches altitude 10° 17:35:54 10° 342° (NNW) 2,326 6.9 -4.9°
Maximum altitude 17:41:11 83° 69° (ENE) 770 4.0 -5.9°
Drops below altitude 10° 17:46:18 10° 159° (SSE) 2,249 6.1 -6.8°
Sets 17:48:37 0° 160° (SSE) 3,153 6.9 -7.3°
